Vorticity
nan nan nan nan nan nan nan nan nan nan nan nan nan nan nan nan nan nan nan nan nan nan nan nan nan nan nan nan nan nan nan nan nan nan nan nan nan nan nan nan nan nan nan nan
nan 8 5 8 8 -1 7 7 5 7 5 11 10 6 12 8 7 8 8 8 8 10 11 9 8 7 8 8 7 6 6 6 5 3 6 6 7 7 6 6 8 9 8 nan
nan 7 5 10 -1 11 7 6 2 2 7 9 7 14 8 10 7 7 9 8 9 9 7 8 8 7 8 8 9 8 7 7 6 5 5 6 6 7 8 9 9 11 7 nan
nan 6 7 8 4 9 3 6 2 6 4 9 9 8 20 9 8 7 7 8 8 9 7 8 8 8 7 9 9 9 9 8 7 8 5 6 5 7 8 8 7 9 10 nan
nan 6 10 5 4 -1 3 13 2 2 6 12 6 4 17 9 9 8 8 8 9 10 9 8 8 8 7 8 8 10 10 9 9 8 7 6 6 7 7 8 9 6 7 nan
nan 6 7 5 5 4 5 1 6 7 9 10 7 15 10 12 10 10 10 8 9 8 8 8 10 8 8 8 8 9 8 8 10 8 8 4 7 8 6 8 8 5 7 nan
nan 6 8 7 7 6 7 3 7 10 7 18 15 4 10 16 15 15 10 8 9 8 8 9 8 7 9 8 7 7 9 8 9 8 8 10 7 6 7 7 6 7 8 nan
nan 9 9 6 10 6 11 0 2 4 6 8 9 9 6 13 10 10 14 10 8 8 8 9 7 8 9 8 8 7 6 9 8 7 8 9 8 7 9 6 6 8 9 nan
nan 13 4 8 10 5 6 7 1 6 3 6 16 10 6 6 4 7 14 13 10 7 8 9 8 8 8 10 9 7 6 8 8 7 7 8 7 6 7 8 8 8 8 nan
nan 13 10 13 8 13 5 9 7 3 9 14 9 10 15 11 7 11 9 11 13 10 7 8 9 9 8 9 10 10 7 8 9 9 8 8 9 9 8 8 7 8 12 nan
nan 14 13 10 10 10 10 7 10 5 9 6 8 11 14 12 8 7 18 18 12 10 8 9 9 8 10 9 10 10 10 9 9 10 9 10 10 10 9 11 13 12 12 nan
nan 4 17 14 8 9 7 13 5 5 4 -1 6 25 21 5 6 10 17 17 13 10 11 11 10 10 9 10 10 10 10 10 10 10 10 10 10 11 11 12 12 12 9 nan
nan 2 14 13 8 12 8 10 5 2 4 9 9 4 12 8 7 16 11 14 12 11 11 11 12 12 12 11 10 12 11 11 10 11 11 12 12 11 12 11 11 11 8 nan
nan 1 6 5 11 13 14 6 4 3 4 7 7 2 6 2 8 5 11 16 11 10 11 10 9 10 12 12 13 12 12 12 12 11 12 12 10 11 12 9 9 11 11 nan
nan 5 1 6 11 10 9 8 8 5 2 3 4 6 -1 8 10 7 17 11 10 10 9 9 9 9 10 11 12 11 11 12 12 11 10 10 11 11 11 10 9 7 8 nan
nan 11 11 9 10 14 9 9 7 6 6 2 4 4 10 11 7 9 6 11 10 10 9 9 10 10 10 9 11 10 10 11 10 11 11 9 9 9 8 8 8 8 8 nan
nan 9 17 11 13 0 19 17 15 9 7 6 7 4 4 11 9 9 5 6 10 12 11 9 9 9 10 11 10 11 9 9 11 9 9 10 9 8 8 8 8 8 8 nan
nan 9 10 14 15 10 7 14 15 14 13 12 7 7 12 10 9 7 11 9 10 13 14 10 10 11 10 11 10 10 11 9 9 9 8 8 8 8 8 8 8 9 9 nan
nan 5 5 15 6 13 9 11 7 8 11 12 14 10 9 10 7 7 6 16 18 19 13 12 13 12 12 10 9 9 9 9 9 8 8 8 8 8 7 8 8 9 8 nan
nan 10 7 13 16 8 12 13 13 10 10 10 9 9 9 7 5 10 13 18 18 17 14 14 12 10 10 10 8 9 9 8 8 8 8 8 8 8 10 10 9 8 10 nan
nan 15 10 6 11 13 12 15 14 8 13 17 9 9 9 5 5 5 23 29 16 13 12 12 9 9 9 9 9 8 8 8 9 9 9 9 8 7 8 8 8 9 10 nan
nan 6 12 11 9 13 8 16 4 4 6 14 15 9 13 10 8 15 19 16 13 12 11 8 7 9 10 9 8 9 9 9 9 9 8 7 9 10 10 10 7 8 11 nan
nan 4 5 11 -0 4 18 12 19 14 7 7 8 18 16 10 14 13 12 11 11 11 8 9 10 9 10 9 9 9 9 10 9 9 9 9 10 10 8 9 11 10 7 nan
nan 8 3 7 12 3 9 9 9 14 15 12 15 17 12 11 18 13 10 11 11 10 10 10 10 10 9 9 10 10 10 9 9 8 7 8 8 9 9 10 8 9 11 nan
nan 11 13 11 12 13 10 8 4 6 5 7 11 11 13 23 21 11 11 10 10 11 10 10 10 11 10 9 10 10 10 8 7 8 7 8 7 5 6 8 15 13 9 nan
nan nan nan nan nan nan nan nan nan nan nan nan nan nan nan nan nan nan nan nan nan nan nan nan nan nan nan nan nan nan nan nan nan nan nan nan nan nan nan nan nan nan nan nan
CAPE
0 0 6 42 2 27 117 55 75 91 46 97 175 331 404 270 144 120 175 304 429 505 641 649 594 606 646 601 268 394 631 1699 1008 762 502 274 114 114 157 169 236 666 1716 2020
0 0 9 36 27 26 45 64 68 4 46 56 18 24 461 436 190 98 76 106 93 174 404 674 770 708 724 810 739 443 767 1438 1151 909 1518 791 474 202 260 310 714 1263 2128 2455
0 0 11 28 40 18 46 56 16 19 0 0 0 1 82 409 213 28 94 157 102 49 214 458 652 792 784 979 1178 1343 1723 1728 1693 1589 1105 1107 977 957 637 497 623 992 1807 2198
0 1 6 10 16 7 52 11 1 1 0 14 0 5 0 161 228 48 9 55 204 112 145 349 519 653 620 720 1042 1443 2058 2403 2114 2594 1764 2712 1211 986 371 689 468 1385 1926 2383
0 1 6 11 1 17 13 11 0 1 0 2 0 12 9 18 173 131 43 12 16 267 222 295 371 528 585 634 753 1077 2219 2525 2814 2732 2648 1740 1821 738 384 356 2430 2058 3207 2516
0 0 1 0 0 14 3 0 0 0 0 10 20 3 171 7 43 176 105 50 51 125 278 333 418 438 488 500 646 927 2146 2397 2243 2166 1960 2341 2909 1991 977 1336 1397 1706 1701 1849
0 0 0 0 0 5 7 3 5 7 5 24 36 3 15 0 0 28 189 88 70 144 242 383 524 592 628 501 512 640 2332 2324 1956 1760 1778 1805 2045 2189 2019 2327 2006 2893 1818 1723
0 0 0 0 0 4 0 0 8 28 27 61 41 11 59 4 1 0 38 189 63 91 158 359 456 628 796 672 706 807 1967 2814 2314 1886 2393 2581 2812 1497 1505 2358 2232 2408 2094 2601
0 0 0 0 0 0 0 0 1 26 43 48 46 2 5 0 0 0 0 59 195 105 200 396 529 675 776 1002 1029 1012 2057 2864 2643 2363 3207 3510 3144 3086 2557 3325 4040 2814 3972 2801
0 0 0 0 0 0 0 0 0 8 43 66 59 1 12 0 0 0 4 0 104 225 219 347 569 798 881 951 1069 1266 1412 2548 2489 2561 3023 3209 3102 3116 3145 3144 3146 3965 3727 3214
0 0 0 0 0 0 0 0 0 5 4 77 45 32 17 1 42 92 84 56 49 235 216 397 581 743 986 903 1084 1277 1487 2244 2801 3689 3660 3996 3189 3399 3540 3474 3732 3529 3108 2856
0 0 0 0 0 0 0 0 0 3 10 3 64 72 0 1 0 7 83 138 147 300 226 403 646 981 1289 1278 1194 1427 1712 2229 3294 3124 3375 3258 3380 3310 3416 3765 3442 2634 2213 1876
0 0 0 0 0 0 0 0 0 0 7 32 48 57 0 0 0 0 22 312 426 509 480 653 892 1051 1468 1881 1973 1903 2078 2266 2702 3112 3447 3314 3227 3173 2846 2978 2206 1828 1790 1504
0 0 0 0 0 0 0 0 0 0 2 11 14 43 44 2 0 0 102 271 525 771 921 1124 1331 2161 2161 2322 2337 2186 2373 2535 2936 3284 3180 3193 2905 2638 2062 2064 2039 1657 1051 888
0 0 0 0 0 0 0 0 0 0 0 0 22 52 33 19 0 9 104 517 799 1160 1337 1528 1683 1985 2073 2607 2367 2337 2554 2869 3058 3124 3077 2595 2486 2321 1643 1339 1017 824 451 139
0 0 0 0 0 0 0 0 0 0 0 0 6 23 16 2 4 0 321 1141 1261 1420 1584 1869 2034 2270 2342 2589 2662 2795 2980 3146 3087 2901 2446 1938 1619 1335 1110 699 312 110 37 8
0 0 0 0 0 0 0 0 0 0 0 0 0 0 2 1 0 0 0 388 1378 1578 1753 2233 2464 2640 2772 2775 2929 3061 2985 2831 2658 2000 1713 1338 981 518 245 76 23 1 5 5
0 27 0 0 0 0 0 0 0 0 0 0 0 0 0 0 0 0 0 4 252 1304 1901 2368 2618 2705 2888 2950 2997 3208 2571 2131 1717 1373 953 568 303 113 26 15 5 0 2 4
0 0 0 2 0 0 0 0 0 0 0 0 0 0 0 0 0 0 6 5 123 1468 2232 2513 2640 2905 3351 2974 2743 2245 1750 1368 971 623 285 108 27 6 12 1 1 0 0 2
0 2 2 0 0 0 0 0 0 0 0 0 0 0 0 0 0 0 0 106 730 2140 2759 2647 2892 2823 2765 2505 1966 1768 1212 769 348 75 24 6 0 0 0 0 0 0 0 3
0 2 0 0 0 0 0 0 0 0 0 0 0 0 0 0 24 0 754 941 2035 2669 2777 2876 2616 2473 2323 1812 1578 1110 686 244 40 2 1 0 0 3 0 1 1 2 3 6
0 0 0 0 0 0 0 0 0 0 1 0 0 0 55 24 0 802 1855 2089 2491 2752 2648 2478 2253 2301 1891 1764 1334 869 269 44 1 0 0 0 0 0 0 2 1 6 0 0
0 0 0 0 0 0 0 0 0 0 0 0 0 0 0 0 0 1699 2228 2383 2590 2526 2379 2147 2076 1689 1478 1006 512 184 79 12 1 0 0 0 0 0 0 0 0 0 0 0
0 0 0 0 0 0 0 0 4 15 0 0 0 0 0 0 9 1896 2168 2457 2511 2313 2059 1920 1606 1230 902 519 144 0 0 0 0 0 0 0 0 0 0 0 0 0 0 0
0 0 0 0 0 0 0 0 8 50 155 184 144 40 111 157 1212 2072 2329 2755 2340 2019 1875 1435 1363 966 484 90 1 0 0 0 0 0 0 0 0 0 0 0 0 0 0 0
0 10 0 0 3 0 42 0 0 5 41 148 393 240 208 553 1824 2160 2628 2437 2078 1914 1350 1323 1071 405 38 3 0 0 0 0 0 0 0 0 0 0 0 0 0 0 0 0